Temperature
12 11 10 11 12 12 13 13 13 14 14 13 12 12 13 14 13 13 13 13 13 12 12 11 11 11 10 10 10 10 10 10 10 10 10 10 10 10 10 10 10 10 11 11
11 10 11 12 13 13 12 12 12 13 13 13 12 12 13 13 13 13 13 13 12 12 11 11 11 10 10 10 10 10 10 10 10 10 10 10 10 10 10 10 10 10 10 10
11 12 12 12 12 12 12 12 12 12 12 12 11 11 12 13 13 13 13 13 12 12 11 11 10 10 10 10 10 10 10 10 10 9 9 9 9 9 9 9 10 10 10 10
11 12 12 12 12 12 11 12 12 11 10 10 11 9 12 12 12 12 12 13 12 12 11 11 10 10 10 10 10 10 10 10 10 9 9 9 9 9 9 9 9 9 9 9
11 12 11 11 12 12 11 12 12 11 10 10 10 9 10 12 12 12 12 12 12 11 11 10 10 10 10 10 9 9 9 9 9 9 9 9 9 9 9 9 9 9 9 9
11 12 12 11 12 12 12 11 11 10 9 8 10 10 10 12 12 12 12 12 12 11 11 10 10 10 10 9 9 9 9 9 9 9 9 9 9 8 9 9 9 9 9 9
10 11 11 11 11 11 11 10 9 9 8 9 11 11 11 13 13 12 12 12 11 11 10 10 10 9 9 9 9 9 9 9 9 8 8 9 8 8 8 8 8 8 8 8
10 9 10 10 10 10 10 10 9 9 9 10 11 10 11 12 12 12 12 11 11 10 10 9 9 9 9 9 9 9 8 8 8 8 8 8 8 8 8 8 8 8 8 8
9 9 10 10 10 10 10 10 10 9 9 9 10 12 11 11 11 11 11 11 10 10 9 9 9 9 9 9 8 8 8 8 8 8 8 8 8 7 7 7 7 7 8 8
9 9 9 10 10 9 9 10 9 8 8 9 11 11 10 10 10 10 9 9 10 9 9 9 8 8 8 8 8 8 8 8 8 7 7 7 7 7 7 7 7 7 7 7
9 8 8 8 8 8 8 8 8 8 9 9 9 10 11 10 10 9 9 9 9 9 9 8 8 8 8 8 8 8 8 7 7 7 7 7 7 7 7 7 7 7 7 7
7 7 7 8 9 9 9 9 8 7 8 8 8 9 11 10 9 9 9 9 9 8 8 8 7 7 7 7 7 7 7 7 7 7 7 7 6 6 6 6 6 6 6 6
7 6 6 6 7 7 7 8 8 8 7 7 7 8 10 9 9 9 8 8 8 8 8 7 7 7 7 7 6 6 7 7 7 6 6 6 6 6 6 6 6 6 6 6
7 5 5 6 7 6 6 7 7 7 5 6 7 8 9 9 8 8 8 8 7 7 7 6 6 6 6 6 6 6 6 6 6 6 6 6 6 6 6 6 6 6 6 5
5 4 5 6 7 7 6 7 7 6 6 6 7 8 8 8 8 8 7 7 7 6 6 6 6 5 5 5 5 5 5 5 5 6 6 6 5 5 5 5 5 5 5 5
5 4 4 4 6 6 6 6 7 7 7 7 7 8 8 8 7 7 7 6 6 6 5 5 5 5 5 5 5 5 5 5 5 5 5 5 5 5 5 5 5 5 5 4
3 3 3 3 5 5 4 6 6 6 7 7 7 7 7 6 6 6 6 6 5 5 5 4 4 4 4 4 4 4 4 4 4 5 5 5 5 5 4 4 4 4 4 4
3 3 2 3 3 3 5 6 7 7 6 7 7 6 6 6 5 5 5 5 4 4 4 4 4 4 4 4 4 4 4 4 4 4 4 4 4 4 4 4 4 4 4 3
4 3 2 2 3 4 5 5 5 5 5 6 6 6 5 5 5 4 4 4 3 3 3 3 3 3 3 3 3 3 3 3 4 4 4 4 4 4 3 3 3 3 3 3
3 3 2 2 2 3 4 4 5 5 4 5 5 5 4 4 3 3 3 3 3 3 3 3 3 3 3 3 3 3 3 3 3 3 3 3 3 3 3 3 3 3 3 2
1 1 1 2 2 3 3 4 4 3 3 4 5 4 4 3 3 3 3 2 2 2 2 2 2 2 2 2 2 2 2 2 2 2 2 3 3 3 2 2 2 2 2 2
1 1 1 1 1 2 2 3 3 2 3 3 3 3 3 2 2 2 2 1 2 2 2 2 2 2 2 2 2 2 1 2 2 2 2 2 2 2 2 2 2 2 2 2
2 2 2 1 1 2 2 2 2 2 2 2 2 2 2 1 1 1 1 1 1 1 1 1 1 1 1 1 1 1 1 1 1 1 1 1 1 1 1 1 1 1 1 1
1 1 1 1 1 1 1 2 2 1 1 1 1 1 1 0 0 -0 -0 -0 -0 0 -0 0 -0 -0 0 0 0 0 0 0 0 1 1 1 1 1 1 1 0 0 0 0
-0 0 0 -0 0 1 1 1 0 0 0 0 0 0 -0 -0 -1 -1 -1 -1 -1 -1 -1 -1 -1 -1 -1 -1 -1 -0 -0 -0 -0 -0 -0 -0 -0 -0 -0 -0 -0 -0 -0 -0
-1 -1 -1 -1 -0 -1 -1 -1 -1 -1 -1 -1 -1 -1 -1 -1 -1 -1 -1 -1 -1 -1 -1 -1 -1 -1 -1 -1 -1 -1 -1 -1 -1 -1 -1 -1 -1 -1 -1 -1 -1 -1 -1 -1
Wind_Speed
7 6 8 9 11 10 9 10 11 8 3 5 9 11 9 7 7 8 7 7 7 6 5 5 5 5 5 4 4 4 4 4 4 3 3 3 3 2 2 2 3 3 4 3
7 11 11 9 9 11 12 13 11 8 3 5 8 12 9 8 9 8 7 7 6 5 5 6 5 5 5 5 5 5 5 4 4 4 3 2 2 2 2 2 2 3 3 3
12 5 7 11 12 11 12 11 9 8 8 7 7 9 8 7 7 7 6 5 5 6 6 6 6 5 5 5 5 5 5 5 5 5 4 3 2 2 2 2 2 2 3 3
10 12 9 10 11 10 10 6 8 7 6 5 4 6 6 6 7 8 7 6 6 6 5 5 5 5 5 6 5 5 5 5 5 5 5 6 4 3 3 3 3 2 3 3
7 6 9 11 10 9 6 4 5 6 6 7 7 6 7 5 7 8 7 6 5 5 6 5 6 6 6 6 6 6 5 5 5 5 6 6 4 3 3 4 4 3 3 3
10 6 6 7 6 7 5 5 5 5 4 7 9 8 6 6 7 6 6 5 4 3 4 5 5 5 5 5 6 6 6 5 5 6 6 6 6 5 5 5 5 4 3 2
9 10 8 5 6 6 6 3 2 3 5 7 6 7 6 3 4 5 5 5 4 3 3 4 4 5 5 6 6 6 6 5 5 6 6 6 6 6 7 6 6 5 4 3
7 7 8 6 7 6 9 7 5 4 5 4 5 7 3 2 4 4 4 4 4 3 2 3 4 4 5 6 7 6 6 5 6 6 6 6 5 5 5 6 6 6 5 4
5 5 2 4 4 5 6 8 6 5 6 5 6 4 3 4 4 4 3 4 3 2 2 2 2 3 4 5 6 7 6 6 6 6 6 5 5 5 6 6 5 5 4 4
3 4 4 4 4 6 5 3 3 5 5 6 7 7 5 5 5 4 3 2 2 2 2 2 2 2 2 3 5 5 6 5 5 6 5 4 5 5 5 6 6 5 5 5
5 4 3 4 8 8 6 6 5 5 5 4 5 3 1 5 5 4 4 3 2 2 2 2 2 2 2 2 3 3 4 5 5 5 5 4 4 5 5 5 5 5 4 5
3 3 5 6 4 4 7 7 6 4 5 5 4 3 3 6 5 4 4 3 2 2 2 2 3 3 2 2 2 3 3 4 4 4 4 4 4 5 5 5 5 5 5 5
2 3 3 3 3 3 5 7 7 5 3 4 5 5 1 4 5 4 4 2 2 2 3 2 2 2 2 1 1 2 3 3 4 5 5 4 4 4 5 5 5 5 5 4
4 5 7 8 4 3 6 9 9 8 6 7 9 8 4 2 1 2 2 2 2 2 2 2 2 2 2 1 1 1 1 2 3 5 5 5 5 5 4 4 4 5 5 5
4 6 9 12 10 8 9 11 12 13 12 10 10 10 8 4 1 1 2 2 2 2 2 1 1 1 1 1 1 1 1 1 2 4 4 4 4 4 3 4 4 4 4 4
4 6 6 10 11 11 13 13 14 15 15 15 14 12 5 2 1 1 1 2 2 1 1 1 1 1 1 1 1 1 1 1 2 3 3 4 4 4 3 3 3 3 3 3
5 4 4 7 7 7 12 12 13 11 11 11 13 9 3 2 1 0 1 2 1 1 1 1 1 0 1 1 1 1 1 1 2 2 3 3 4 3 3 3 3 3 3 3
7 6 4 4 3 10 6 2 5 8 9 8 7 4 3 2 1 1 3 2 2 2 2 2 1 1 1 1 1 2 2 2 2 2 2 3 3 3 3 3 3 3 3 3
8 7 4 4 6 9 5 2 2 5 7 5 6 4 2 1 1 1 3 3 2 2 1 1 1 1 1 1 2 3 2 2 2 2 2 2 3 3 2 2 2 2 2 2
5 7 6 6 6 7 2 2 3 2 6 3 3 4 3 2 2 2 1 3 2 2 2 2 2 3 2 2 3 3 2 2 1 1 1 2 2 3 3 3 2 2 2 2
3 5 8 8 7 5 2 3 2 3 4 3 2 2 3 2 2 2 2 3 2 2 2 3 3 3 2 2 3 3 2 1 1 1 1 1 1 2 2 2 2 2 2 2
5 4 5 5 6 6 2 1 1 2 2 3 3 3 4 4 4 3 3 2 2 2 2 3 3 3 3 2 2 2 1 1 1 2 2 1 1 1 1 2 1 1 2 2
4 4 4 4 3 2 2 1 1 2 3 3 4 4 4 4 3 3 3 2 2 2 3 3 3 3 3 3 2 1 1 1 2 2 1 1 1 0 1 2 2 1 2 2
2 3 2 2 2 3 4 5 5 5 5 5 5 4 5 4 3 2 2 2 3 3 3 2 3 2 2 3 2 1 1 1 1 1 1 0 0 0 0 1 1 2 2 2
3 3 3 3 2 2 5 6 6 6 6 6 6 5 4 4 3 3 3 3 3 3 3 3 2 2 3 3 2 2 2 1 1 1 1 1 0 0 0 0 1 2 2 3
3 3 3 3 2 1 3 5 6 5 6 6 6 6 5 4 4 4 3 4 4 4 3 3 3 3 3 3 3 2 2 1 1 1 1 1 1 1 0 0 2 3 3 4
Wind_Direction
199 218 221 221 224 246 268 275 277 280 278 268 260 267 266 253 242 240 233 219 211 206 194 174 176 173 170 165 159 165 163 160 146 149 157 164 164 150 128 106 99 112 112 110
220 227 233 241 245 247 254 266 275 284 275 270 275 275 265 250 238 234 228 221 210 198 183 176 172 168 171 173 171 169 162 160 155 162 168 175 178 160 148 129 110 107 110 112
222 223 219 235 243 249 250 250 262 276 297 269 278 283 242 235 230 221 221 219 198 196 187 179 174 172 171 177 176 177 171 163 157 164 159 144 131 131 138 150 153 132 116 115
233 235 238 241 240 239 254 251 260 269 281 271 229 283 252 226 221 210 208 209 194 187 187 182 179 173 178 179 171 176 176 170 167 164 159 158 164 172 183 170 161 147 124 120
229 216 229 239 241 238 250 277 263 260 260 273 242 252 266 223 224 207 197 192 183 180 184 184 185 182 178 173 171 175 178 174 169 168 171 170 172 178 159 150 155 154 139 127
244 246 240 240 242 239 248 258 251 249 250 258 224 219 262 218 212 188 181 174 175 175 177 180 180 175 174 169 171 169 174 179 175 177 180 178 173 166 164 163 168 165 156 151
235 232 222 229 233 216 217 211 234 226 219 240 201 214 246 219 167 168 168 166 165 162 168 175 177 177 173 169 174 175 177 182 178 177 181 182 178 175 179 175 173 170 166 167
235 236 203 204 218 209 210 211 207 224 238 258 209 227 236 128 100 109 125 137 142 150 168 172 179 177 173 171 174 176 182 184 179 178 182 181 179 180 182 180 176 176 176 175
245 241 192 193 208 220 212 219 236 272 288 276 244 221 200 137 124 122 113 112 124 141 139 136 145 158 170 172 176 181 186 185 184 181 178 177 178 177 175 174 174 173 166 165
287 270 232 193 204 231 234 238 211 217 237 251 252 234 220 176 174 153 140 124 122 122 122 125 129 126 146 172 175 174 174 177 176 174 176 177 176 172 165 163 167 170 170 169
253 247 229 189 206 211 205 220 221 223 235 237 258 254 109 154 153 153 148 134 124 117 130 118 114 115 117 138 156 164 168 170 169 170 173 169 170 171 167 171 175 173 170 169
239 248 244 231 223 230 228 226 211 212 242 238 259 264 70 98 101 101 101 85 72 88 99 100 109 115 116 126 147 163 171 172 170 167 168 165 165 164 172 179 180 172 172 175
243 230 252 244 229 211 231 230 233 250 264 240 236 247 137 94 95 89 96 92 74 79 78 81 92 99 113 126 145 155 158 168 168 162 162 164 163 165 177 179 176 174 176 178
266 241 232 236 244 212 239 243 236 225 229 244 238 253 261 264 125 110 111 112 90 80 78 72 73 77 81 80 91 99 123 154 166 162 162 170 175 174 173 163 167 174 175 176
236 245 256 265 273 264 251 244 233 227 227 234 252 257 261 257 186 108 93 94 93 90 81 68 70 78 90 87 89 87 80 123 153 156 164 174 170 159 154 157 159 164 167 179
246 252 266 270 264 266 264 249 241 238 236 244 258 266 269 291 32 66 74 82 87 76 58 54 45 50 113 114 104 107 114 132 139 148 151 148 148 149 153 160 153 147 151 156
222 231 248 263 264 279 257 239 233 236 236 236 246 251 247 277 308 8 49 73 55 40 39 22 346 287 181 153 141 142 134 115 109 129 136 134 137 138 147 151 147 154 161 159
228 228 231 257 267 244 250 210 224 229 243 240 239 235 221 208 300 48 87 81 47 36 22 1 338 339 21 104 109 115 111 109 111 125 134 129 128 132 137 144 160 168 170 170
220 211 214 223 245 263 260 260 254 233 249 245 231 213 192 149 352 59 67 65 58 44 19 356 359 7 23 79 110 110 109 110 106 111 130 141 142 147 152 162 177 181 174 181
228 215 218 230 239 248 270 324 301 234 249 279 228 199 189 169 220 229 58 56 53 46 38 32 33 36 37 42 87 98 100 98 99 100 121 148 155 162 174 182 185 186 183 189
215 225 225 234 239 257 323 328 34 193 257 326 305 196 176 194 204 142 83 65 65 61 47 39 45 46 34 35 81 93 86 79 76 67 70 121 146 164 177 181 170 166 176 182
203 209 220 225 234 251 1 51 186 248 345 6 34 79 92 90 87 90 83 74 63 60 59 51 48 38 30 36 72 81 56 38 68 70 57 60 146 168 157 156 166 176 181 188
219 230 238 215 226 344 28 72 24 41 42 43 56 63 79 83 81 79 77 68 52 49 55 55 56 42 27 26 56 62 354 41 61 67 59 23 13 146 174 172 178 193 197 210
286 319 295 275 310 1 17 31 46 51 53 55 61 65 71 72 62 50 50 54 49 45 46 48 48 41 23 22 37 30 0 30 63 54 12 357 324 296 198 190 195 204 214 224
306 315 301 284 301 1 21 27 36 45 50 54 57 59 62 64 50 41 40 41 41 36 29 34 36 29 12 10 16 17 12 29 46 35 349 316 284 240 253 253 241 237 234 229
311 293 279 277 320 349 8 23 31 42 44 47 52 50 45 48 44 40 38 33 35 29 25 20 15 9 357 359 2 6 4 14 38 3 337 320 313 310 283 290 330 324 293 293
Height
1488 1490 1488 1485 1485 1483 1482 1481 1480 1476 1474 1477 1476 1473 1471 1470 1470 1469 1469 1470 1471 1472 1474 1475 1476 1477 1478 1480 1481 1482 1483 1485 1487 1488 1490 1492 1494 1496 1498 1501 1503 1505 1507 1508
1485 1484 1481 1481 1480 1481 1481 1481 1479 1476 1474 1475 1474 1470 1466 1465 1464 1464 1465 1466 1467 1469 1470 1472 1473 1474 1475 1476 1478 1479 1480 1482 1484 1486 1488 1490 1492 1494 1496 1498 1501 1502 1504 1506
1479 1476 1476 1478 1478 1479 1478 1479 1479 1479 1476 1473 1475 1469 1462 1459 1458 1459 1460 1462 1463 1465 1466 1468 1469 1470 1472 1473 1474 1476 1478 1480 1482 1483 1486 1488 1490 1491 1493 1495 1498 1500 1501 1503
1475 1473 1474 1474 1475 1476 1476 1474 1475 1477 1481 1480 1475 1479 1459 1455 1454 1455 1456 1457 1459 1461 1463 1464 1465 1466 1468 1470 1472 1474 1475 1477 1479 1481 1483 1485 1486 1487 1490 1492 1494 1497 1499 1501
1469 1468 1470 1471 1470 1472 1472 1472 1473 1475 1478 1480 1474 1478 1461 1452 1452 1451 1451 1453 1455 1457 1459 1460 1462 1463 1465 1467 1469 1471 1473 1474 1476 1478 1479 1482 1484 1486 1487 1489 1492 1494 1496 1498
1466 1466 1467 1466 1467 1469 1470 1472 1473 1475 1479 1483 1468 1472 1460 1450 1446 1446 1448 1450 1453 1455 1456 1458 1459 1461 1462 1464 1466 1468 1469 1471 1472 1474 1476 1478 1480 1482 1485 1486 1488 1490 1492 1494
1465 1463 1463 1464 1466 1468 1470 1476 1482 1481 1481 1473 1457 1461 1454 1442 1439 1442 1445 1448 1450 1452 1453 1455 1456 1457 1459 1461 1463 1464 1466 1468 1469 1470 1472 1475 1477 1479 1481 1482 1485 1487 1488 1490
1465 1463 1459 1460 1462 1465 1466 1469 1478 1479 1471 1462 1453 1456 1447 1439 1439 1441 1443 1446 1448 1450 1451 1452 1453 1454 1456 1458 1460 1461 1463 1465 1466 1467 1469 1472 1474 1476 1478 1480 1482 1483 1485 1487
1462 1460 1456 1457 1459 1462 1464 1466 1463 1469 1466 1466 1456 1445 1443 1440 1441 1442 1444 1445 1447 1448 1450 1450 1451 1452 1453 1455 1456 1458 1460 1461 1463 1464 1467 1469 1471 1472 1474 1476 1478 1480 1482 1484
1460 1462 1457 1457 1459 1460 1461 1462 1467 1470 1471 1465 1451 1444 1445 1442 1442 1443 1444 1445 1446 1447 1448 1449 1450 1450 1451 1453 1454 1455 1457 1458 1460 1462 1464 1466 1468 1469 1471 1473 1475 1477 1479 1481
1460 1463 1460 1459 1459 1458 1461 1463 1462 1464 1461 1462 1456 1449 1435 1437 1438 1441 1442 1444 1445 1446 1447 1448 1448 1449 1450 1451 1451 1453 1455 1456 1457 1459 1461 1462 1464 1466 1468 1470 1472 1474 1476 1478
1460 1461 1461 1456 1453 1453 1455 1456 1459 1465 1462 1456 1456 1451 1435 1436 1437 1439 1441 1443 1444 1445 1446 1447 1448 1448 1449 1449 1450 1451 1452 1453 1455 1457 1458 1460 1461 1463 1465 1467 1469 1471 1473 1475
1460 1462 1464 1459 1458 1456 1455 1453 1455 1457 1459 1459 1458 1450 1437 1437 1439 1440 1441 1443 1444 1444 1445 1446 1446 1447 1447 1447 1448 1449 1449 1451 1452 1454 1455 1457 1458 1460 1462 1463 1466 1468 1470 1472
1459 1461 1461 1458 1452 1453 1455 1453 1452 1457 1463 1458 1450 1444 1440 1439 1439 1440 1441 1442 1443 1444 1444 1444 1445 1445 1445 1446 1446 1447 1447 1449 1450 1451 1453 1454 1456 1457 1459 1460 1462 1464 1466 1468
1458 1459 1455 1450 1447 1448 1448 1447 1447 1450 1450 1452 1443 1440 1438 1437 1438 1439 1440 1441 1442 1442 1443 1443 1443 1444 1444 1444 1444 1445 1445 1446 1447 1449 1450 1451 1453 1454 1456 1457 1459 1461 1462 1464
1456 1456 1454 1451 1446 1445 1444 1441 1441 1441 1441 1440 1438 1436 1435 1435 1436 1438 1439 1440 1440 1441 1441 1441 1442 1442 1442 1442 1442 1443 1444 1444 1445 1446 1447 1448 1450 1451 1453 1454 1456 1457 1458 1460
1454 1456 1456 1452 1445 1445 1443 1435 1435 1434 1431 1433 1435 1434 1433 1435 1435 1437 1438 1439 1439 1440 1440 1440 1440 1440 1440 1440 1440 1441 1441 1442 1443 1444 1445 1446 1447 1448 1450 1451 1452 1454 1455 1457
1451 1453 1455 1452 1450 1450 1432 1426 1426 1427 1427 1427 1428 1429 1431 1432 1434 1435 1436 1437 1438 1438 1438 1438 1438 1438 1438 1438 1439 1440 1440 1440 1441 1442 1443 1444 1445 1446 1448 1449 1450 1451 1453 1454
1443 1447 1451 1449 1446 1434 1427 1427 1428 1428 1426 1425 1425 1427 1429 1430 1432 1434 1435 1436 1436 1436 1436 1436 1436 1436 1436 1437 1437 1438 1438 1438 1439 1439 1440 1442 1443 1444 1445 1447 1448 1449 1450 1451
1439 1441 1446 1444 1442 1435 1427 1425 1423 1425 1427 1423 1423 1424 1426 1428 1432 1434 1433 1434 1434 1434 1434 1434 1434 1434 1435 1435 1435 1435 1436 1436 1437 1437 1438 1439 1441 1442 1443 1444 1445 1446 1447 1448
1442 1442 1441 1439 1437 1430 1428 1426 1424 1431 1428 1424 1421 1421 1423 1426 1428 1430 1431 1431 1432 1432 1433 1433 1433 1433 1433 1433 1433 1433 1434 1434 1435 1436 1436 1437 1438 1439 1440 1441 1442 1443 1444 1445
1437 1439 1438 1436 1436 1434 1428 1426 1427 1427 1425 1423 1422 1422 1423 1425 1427 1428 1429 1429 1430 1431 1431 1431 1431 1431 1432 1432 1432 1432 1432 1433 1434 1434 1434 1435 1436 1437 1437 1438 1439 1440 1441 1441
1431 1432 1431 1431 1433 1429 1427 1426 1425 1424 1424 1423 1423 1424 1425 1425 1426 1427 1428 1428 1429 1429 1429 1429 1430 1430 1430 1431 1431 1431 1431 1431 1432 1432 1432 1433 1433 1434 1434 1435 1435 1436 1437 1438
1430 1429 1429 1429 1428 1428 1427 1426 1425 1424 1424 1424 1424 1425 1425 1426 1427 1427 1428 1428 1428 1428 1428 1428 1428 1428 1429 1429 1429 1429 1429 1429 1429 1429 1430 1430 1431 1431 1431 1432 1432 1433 1433 1434
1432 1431 1430 1429 1429 1428 1428 1427 1427 1426 1425 1425 1425 1426 1426 1426 1427 1427 1427 1427 1427 1427 1427 1428 1427 1427 1427 1427 1427 1427 1427 1427 1427 1427 1427 1428 1428 1428 1428 1429 1429 1429 1430 1430
1433 1433 1432 1430 1430 1430 1430 1429 1428 1427 1426 1426 1426 1426 1427 1427 1427 1427 1427 1427 1426 1426 1426 1426 1426 1426 1426 1426 1425 1425 1426 1426 1425 1425 1425 1425 1425 1425 1425 1425 1426 1426 1427 1427